Tracking 18710 objects as of 29-June-2017
HD Live streaming from Space Station
objects crossing your sky now

OPS 9314 (IDSCS 4)

Track OPS 9314 (IDSCS 4) now!
OPS 9314 (IDSCS 4) is classified as:


NORAD ID: 2218
Int'l Code: 1966-053E
Perigee: 33,698.7 km
Apogee: 34,022.3 km
Inclination: 2.7 °
Period: 1,338.5 minutes
Semi major axis: 40231 km
RCS: 0.1 m2 (medium)
Launch date: June 16, 1966
Source: United States (US)
Launch site: AIR FORCE EASTERN TEST RANGE (AFETR)
Your satellite tracking list
Your tracking list is empty





NASA's NSSDC Master Catalog

Two Line Element Set (TLE):
1  2218U 66053E   17177.31943344 -.00000126 +00000-0 +00000-0 0  9997
2  2218 002.7153 058.4010 0040214 119.6141 129.8726 01.07585530200129
Source of the keplerian elements: AFSPC